Simultaneous Nadir Overpasses (SNOs) Predictions

Prediction of SNOs between GOES-14 and AQUA Satellite Orbit:

Table of predicted SNOs for the next 14.0 days since TLE Epoch: 11/28/2020
Index Date Time (GOES-14) GOES-14 Lat,Lon AQUA Lat,Lon Distance(km) Time Diff (sec)
1 11/28/2020 20:36:06 0.02,-104.14 -0.25,-105.47 150.49 80
2 11/30/2020 20:26:35 0.02,-104.14 0.38,-102.51 185.26 80
3 12/01/2020 08:47:52 -0.04,-104.38 0.64,-107.69 375.05 80
4 12/03/2020 08:35:40 -0.03,-104.37 0.06,-104.72 39.88 80
5 12/05/2020 08:20:49 -0.02,-104.36 -0.59,-101.77 295.09 80
6 12/05/2020 20:42:12 0.04,-104.10 -0.58,-106.95 323.76 80
7 12/07/2020 20:32:41 0.04,-104.10 0.07,-104.00 11.60 80
8 12/09/2020 20:20:29 0.04,-104.09 0.67,-101.03 347.24 80
9 12/10/2020 08:41:45 -0.06,-104.36 0.33,-106.21 210.54 80
10 12/12/2020 08:26:53 -0.05,-104.34 -0.28,-103.25 124.79 80
